Starlink 11253

operational
NORAD ID: 60935 Int'l Des: 2024-155 Owner: SPXS Country: US Constellation: starlink
LEOCIRCULAR

Starlink 11253について

説明を読み込み中...

リアルタイム位置

3D地球を読み込み中...

次回通過

高度履歴

Altitude vs Time

uPlot chart will show altitude changes over time

軌道要素

1 60935U 24155M 25259.01529157 .00001149 00000-0 14340-4 0 9994
2 60935 53.1596 122.6383 0001156 72.1409 287.9735 15.69717651 60965
Epoch: Sep 16, 2025 • Age: 32 hours

現在のステータス

高度 375.0 km
速度 7.68 km/s
衛星直下点 -43.89°S, 49.23°W
打ち上げ日 Aug 31, 2024
運用期間 1 years
タイプ internet

技術仕様

分類 Payload
質量 960.00 kg
乾燥質量 910.00 kg
総質量 960.00 kg
長さ 0.30 m
直径 4.10 m
スパン 29.00 m
形状 Box + pan
製造者 SPXS
バスタイプ Starlink V2MD
フェーズステータス In Orbit
所有者/国 SPXS/US

大規模コンステレーション

Loading constellations...